New Bedford, MA

2:07 AM EDT on June 26, 2017 (GMT -0400)
New Bedford Regional

Weather History for KEWB - August, 2014

Change the Weather History Date:

Monday, August 18, 2014

  Actual Average Record
Temperature  
Mean Temperature 66 °F -  
Max Temperature 78 °F 80 °F 96 °F (1987)
Min Temperature 54 °F 65 °F 53 °F (2004)
Growing Degree Days 16 (Base 50)    
Moisture  
Dew Point 55 °F    
Average Humidity 72    
Maximum Humidity 97    
Minimum Humidity 43    
Precipitation  
Precipitation 0.00 in - - ()
Sea Level Pressure  
Sea Level Pressure 29.82 in    
Wind  
Wind Speed 3 mph (NW)    
Max Wind Speed 10 mph    
Max Gust Speed 16 mph    
Visibility 10 miles    
Events      
Averages and records for this station are not official NWS values.
T = Trace of Precipitation, MM = Missing Value Source: NWS Daily Summary

Daily Weather History Graph

Daily Weather History Graph

Search for Another Location

Airport or City:

Trip Planner

Search our weather history database for the weather conditions in past years. The results will help you decide how hot, cold, wet, or windy it might be!

Date:

Astronomy

Aug. 18, 2014 Rise Set
Actual Time 5:55 AM EDT 7:39 PM EDT
Civil Twilight 5:25 AM EDT 8:08 PM EDT
Nautical Twilight 4:49 AM EDT 8:44 PM EDT
Astronomical Twilight 4:11 AM EDT 9:23 PM EDT
Moon No Moon Rise 2:40 PM EDT (8/18)
Length of Visible Light 14h 43m
Length of Day
13h 43m
Last Quarter, 38% of the Moon is Illuminated
Aug 18
Last Quarter
Aug 25
New
Sep 2
First Quarter
Sep 8
Full
Sep 15
Last Quarter

Hourly Weather History & Observations

Time (EDT) Temp. Dew Point Humidity Pressure Visibility Wind Dir Wind Speed Gust Speed Precip Events Conditions
12:53 AM 57.9 °F 55.0 °F 90% 29.82 in 10.0 mi Calm Calm - N/A   Clear
1:53 AM 55.9 °F 54.0 °F 93% 29.81 in 10.0 mi Calm Calm - N/A   Clear
2:53 AM 55.4 °F 53.6 °F 94% 29.80 in 10.0 mi SSW 3.5 mph - N/A   Clear
3:53 AM 55.0 °F 53.1 °F 93% 29.80 in 10.0 mi South 3.5 mph - N/A   Clear
4:53 AM 54.0 °F 52.0 °F 93% 29.81 in 10.0 mi Calm Calm - N/A   Clear
5:53 AM 57.9 °F 54.0 °F 87% 29.81 in 10.0 mi WNW 4.6 mph - N/A   Clear
6:53 AM 60.1 °F 55.0 °F 83% 29.83 in 10.0 mi WNW 5.8 mph - N/A   Clear
7:53 AM 64.0 °F 55.0 °F 73% 29.83 in 10.0 mi Variable 4.6 mph - N/A   Clear
8:53 AM 68.0 °F 55.9 °F 65% 29.84 in 10.0 mi Variable 5.8 mph - N/A   Clear
9:53 AM 70.0 °F 55.9 °F 61% 29.83 in 10.0 mi Variable 5.8 mph - N/A   Clear
10:53 AM 73.9 °F 57.0 °F 55% 29.83 in 10.0 mi Variable 6.9 mph - N/A   Partly Cloudy
11:53 AM 75.0 °F 55.9 °F 51% 29.81 in 10.0 mi WNW 4.6 mph - N/A   Mostly Cloudy
12:53 PM 75.9 °F 57.0 °F 52% 29.80 in 10.0 mi West 10.4 mph 16.1 mph N/A   Scattered Clouds
1:53 PM 73.9 °F 54.0 °F 50% 29.79 in 10.0 mi Calm Calm - N/A   Scattered Clouds
2:53 PM 77.0 °F 55.9 °F 48% 29.78 in 10.0 mi North 4.6 mph - N/A   Scattered Clouds
3:53 PM 77.0 °F 55.0 °F 47% 29.78 in 10.0 mi WNW 10.4 mph - N/A   Scattered Clouds
4:53 PM 77.0 °F 53.1 °F 43% 29.79 in 10.0 mi NW 5.8 mph - N/A   Scattered Clouds
5:53 PM 75.9 °F 52.0 °F 43% 29.79 in 10.0 mi NW 5.8 mph - N/A   Clear
6:53 PM 71.1 °F 57.0 °F 61% 29.81 in 10.0 mi NNE 3.5 mph - N/A   Clear
7:53 PM 66.9 °F 61.0 °F 81% 29.82 in 10.0 mi NNE 4.6 mph - N/A   Clear
8:53 PM 64.0 °F 59.0 °F 84% 29.84 in 10.0 mi Calm Calm - N/A   Clear
9:53 PM 60.1 °F 57.0 °F 90% 29.86 in 10.0 mi Calm Calm - N/A   Clear
10:53 PM 57.9 °F 57.0 °F 97% 29.87 in 10.0 mi Calm Calm - N/A   Clear
11:53 PM 59.0 °F 55.4 °F 88% 29.88 in 10.0 mi Calm Calm - N/A   Clear